TSC871 CYHZ-TXKF

Flight info

Callsign TSC871
Flight time 2h 1m
Altitude 38000
Route KEVLU DCT ELERI/M078F380 DCT AVAST DCT DRYED DCT MEANO/M078F390 L462 ANVER MOMOM1
Aircraft A20N/M-SDE2E3FGHIRWXY/LB1

Departure

Time 2026-04-21 23:17
Airport Halifax / Stanfield International Airport (CYHZ)

Arrival

Time 2026-04-22 01:18
Airport L.F. Wade International Airport (TXKF)
Time Latitude Longitude Altitude Speed Heading
2026-04-21 22:36 44.88852 -63.51433 456 ft 0 kts 262°
2026-04-21 22:54 44.88853 -63.51424 456 ft 0 kts 262°
2026-04-21 22:58 44.88854 -63.51414 454 ft 0 kts 262°
2026-04-21 23:01 44.88855 -63.51403 456 ft 1 kts 262°
2026-04-21 23:01 44.88856 -63.51388 456 ft 1 kts 262°
2026-04-21 23:01 44.88858 -63.51370 456 ft 2 kts 262°
2026-04-21 23:01 44.88860 -63.51349 457 ft 2 kts 262°
2026-04-21 23:02 44.88862 -63.51328 457 ft 2 kts 262°
2026-04-21 23:02 44.88863 -63.51326 456 ft 0 kts 262°
2026-04-21 23:05 44.88863 -63.51327 456 ft 1 kts 262°
2026-04-21 23:05 44.88864 -63.51316 456 ft 0 kts 262°
2026-04-21 23:05 44.88863 -63.51323 456 ft 0 kts 261°
2026-04-21 23:06 44.88860 -63.51324 456 ft 0 kts 234°
2026-04-21 23:06 44.88858 -63.51324 456 ft 0 kts 207°
2026-04-21 23:06 44.88855 -63.51323 456 ft 0 kts 180°
2026-04-21 23:06 44.88832 -63.51318 456 ft 7 kts 173°
2026-04-21 23:07 44.88795 -63.51301 456 ft 0 kts 151°
2026-04-21 23:07 44.88791 -63.51298 456 ft 3 kts 151°
2026-04-21 23:07 44.88751 -63.51275 456 ft 10 kts 167°
2026-04-21 23:07 44.88662 -63.51273 457 ft 15 kts 150°
2026-04-21 23:08 44.88561 -63.51226 457 ft 17 kts 170°
2026-04-21 23:08 44.88538 -63.51221 457 ft 2 kts 171°
2026-04-21 23:08 44.88516 -63.51216 457 ft 4 kts 171°
2026-04-21 23:08 44.88493 -63.51211 457 ft 0 kts 171°
2026-04-21 23:09 44.88482 -63.51209 457 ft 3 kts 171°
2026-04-21 23:09 44.88453 -63.51204 457 ft 5 kts 177°
2026-04-21 23:09 44.88446 -63.51205 457 ft 2 kts 185°
2026-04-21 23:09 44.88427 -63.51213 457 ft 4 kts 202°
2026-04-21 23:10 44.88395 -63.51239 457 ft 6 kts 214°
2026-04-21 23:10 44.88351 -63.51283 457 ft 9 kts 215°
2026-04-21 23:10 44.88291 -63.51341 457 ft 12 kts 214°
2026-04-21 23:10 44.88216 -63.51414 458 ft 14 kts 214°
2026-04-21 23:11 44.88130 -63.51504 462 ft 16 kts 220°
2026-04-21 23:11 44.88033 -63.51604 458 ft 18 kts 214°
2026-04-21 23:11 44.87924 -63.51708 459 ft 20 kts 214°
2026-04-21 23:11 44.87803 -63.51826 459 ft 22 kts 214°
2026-04-21 23:12 44.87675 -63.51950 459 ft 23 kts 217°
2026-04-21 23:12 44.87643 -63.51986 459 ft 1 kts 218°
2026-04-21 23:12 44.87594 -63.52037 459 ft 18 kts 217°
2026-04-21 23:12 44.87472 -63.52159 460 ft 25 kts 214°
2026-04-21 23:13 44.87318 -63.52308 459 ft 29 kts 215°
2026-04-21 23:13 44.87144 -63.52486 459 ft 32 kts 217°
2026-04-21 23:13 44.86975 -63.52649 461 ft 29 kts 214°
2026-04-21 23:13 44.86868 -63.52757 460 ft 20 kts 219°
2026-04-21 23:14 44.86764 -63.52915 461 ft 24 kts 228°
2026-04-21 23:14 44.86679 -63.52920 461 ft 0 kts 117°
2026-04-21 23:14 44.86669 -63.52898 461 ft 6 kts 125°
2026-04-21 23:14 44.86645 -63.52851 461 ft 2 kts 125°
2026-04-21 23:15 44.86642 -63.52845 461 ft 0 kts 125°
2026-04-21 23:16 44.86630 -63.52821 461 ft 7 kts 126°
2026-04-21 23:16 44.86602 -63.52733 460 ft 13 kts 87°
2026-04-21 23:16 44.86653 -63.52639 459 ft 12 kts 35°
2026-04-21 23:16 44.86947 -63.52364 461 ft 90 kts 34°
2026-04-21 23:17 44.87651 -63.51667 460 ft 153 kts 35°
2026-04-21 23:17 44.88616 -63.50739 925 ft 166 kts 33°
2026-04-21 23:17 44.89556 -63.49856 1945 ft 164 kts 34°
2026-04-21 23:17 44.90541 -63.48990 2829 ft 169 kts 32°
2026-04-21 23:18 44.91224 -63.48437 3426 ft 172 kts 29°
2026-04-21 23:18 44.92318 -63.47688 4290 ft 178 kts 22°
2026-04-21 23:18 44.93941 -63.47037 5326 ft 191 kts
2026-04-21 23:18 44.95298 -63.47047 6076 ft 200 kts 349°
2026-04-21 23:19 44.96635 -63.47664 6851 ft 207 kts 329°
2026-04-21 23:19 44.97440 -63.48465 7328 ft 214 kts 320°
2026-04-21 23:19 44.98847 -63.49428 7755 ft 242 kts 349°
2026-04-21 23:19 45.00596 -63.49233 8284 ft 267 kts 18°
2026-04-21 23:20 45.02177 -63.47768 9052 ft 279 kts 47°
2026-04-21 23:20 45.03136 -63.45375 9998 ft 287 kts 73°
2026-04-21 23:20 45.03373 -63.42526 10605 ft 305 kts 95°
2026-04-21 23:20 45.02768 -63.39594 10957 ft 327 kts 119°
2026-04-21 23:21 45.01288 -63.37083 11464 ft 339 kts 144°
2026-04-21 23:21 44.99199 -63.35578 12215 ft 338 kts 167°
2026-04-21 23:21 44.96869 -63.35311 12969 ft 337 kts 189°
2026-04-21 23:21 44.94603 -63.36134 13740 ft 338 kts 201°
2026-04-21 23:22 44.92399 -63.37334 14458 ft 341 kts 203°
2026-04-21 23:22 44.90189 -63.38557 15192 ft 342 kts 202°
2026-04-21 23:22 44.87949 -63.39710 15919 ft 344 kts 200°
2026-04-21 23:22 44.85674 -63.40801 16635 ft 346 kts 199°
2026-04-21 23:23 44.83384 -63.41851 17347 ft 348 kts 198°
2026-04-21 23:23 44.81067 -63.42891 18018 ft 351 kts 198°
2026-04-21 23:23 44.78801 -63.43899 18597 ft 355 kts 198°
2026-04-21 23:23 44.76428 -63.44954 19204 ft 357 kts 198°
2026-04-21 23:24 44.74059 -63.46007 19769 ft 360 kts 198°
2026-04-21 23:24 44.71669 -63.47070 20333 ft 363 kts 198°
2026-04-21 23:24 44.69254 -63.48143 20895 ft 366 kts 198°
2026-04-21 23:24 44.66818 -63.49226 21452 ft 368 kts 198°
2026-04-21 23:25 44.64362 -63.50317 22002 ft 371 kts 198°
2026-04-21 23:25 44.61889 -63.51414 22491 ft 376 kts 198°
2026-04-21 23:25 44.59371 -63.52528 22913 ft 382 kts 198°
2026-04-21 23:25 44.56833 -63.53653 23482 ft 384 kts 198°
2026-04-21 23:26 44.54270 -63.54788 23973 ft 387 kts 198°
2026-04-21 23:26 44.51691 -63.55929 24407 ft 389 kts 198°
2026-04-21 23:26 44.49106 -63.57072 24848 ft 391 kts 198°
2026-04-21 23:26 44.46534 -63.58208 25276 ft 394 kts 198°
2026-04-21 23:27 44.43928 -63.59359 25869 ft 390 kts 197°
2026-04-21 23:27 44.41326 -63.60503 26169 ft 397 kts 197°
2026-04-21 23:27 44.38673 -63.61671 26475 ft 401 kts 198°
2026-04-21 23:27 44.35974 -63.62860 26903 ft 403 kts 197°
2026-04-21 23:28 44.33295 -63.64039 27283 ft 405 kts 197°
2026-04-21 23:28 44.30595 -63.65226 27659 ft 407 kts 197°
2026-04-21 23:28 44.27890 -63.66413 28023 ft 410 kts 197°
2026-04-21 23:28 44.25198 -63.67594 28369 ft 412 kts 197°
2026-04-21 23:29 44.22445 -63.68798 28555 ft 418 kts 198°
2026-04-21 23:29 44.19654 -63.70018 28895 ft 420 kts 198°
2026-04-21 23:29 44.16864 -63.71238 29247 ft 422 kts 198°
2026-04-21 23:29 44.14055 -63.72465 29557 ft 424 kts 198°
2026-04-21 23:30 44.11236 -63.73696 29861 ft 426 kts 198°
2026-04-21 23:30 44.08397 -63.74933 30175 ft 428 kts 198°
2026-04-21 23:30 44.05540 -63.76177 30446 ft 432 kts 198°
2026-04-21 23:30 44.02656 -63.77429 30535 ft 438 kts 198°
2026-04-21 23:31 43.99740 -63.78696 30785 ft 440 kts 198°
2026-04-21 23:31 43.96814 -63.79966 31056 ft 441 kts 198°
2026-04-21 23:31 43.93875 -63.81241 31320 ft 443 kts 198°
2026-04-21 23:31 43.90932 -63.82517 31622 ft 443 kts 198°
2026-04-21 23:32 43.87989 -63.83790 31970 ft 443 kts 198°
2026-04-21 23:32 43.85037 -63.85065 32124 ft 447 kts 198°
2026-04-21 23:32 43.82064 -63.86349 32389 ft 448 kts 198°
2026-04-21 23:32 43.79094 -63.87630 32742 ft 446 kts 198°
2026-04-21 23:33 43.76131 -63.88907 33085 ft 445 kts 198°
2026-04-21 23:33 43.73179 -63.90178 33419 ft 445 kts 198°
2026-04-21 23:33 43.70222 -63.91451 33745 ft 442 kts 198°
2026-04-21 23:33 43.67298 -63.92705 34217 ft 438 kts 198°
2026-04-21 23:34 43.64394 -63.93952 34486 ft 438 kts 198°
2026-04-21 23:34 43.61487 -63.95200 34705 ft 437 kts 198°
2026-04-21 23:34 43.58580 -63.96446 34910 ft 437 kts 198°
2026-04-21 23:34 43.55711 -63.97675 35129 ft 437 kts 198°
2026-04-21 23:35 43.52812 -63.98915 35334 ft 437 kts 198°
2026-04-21 23:35 43.49906 -64.00156 35503 ft 438 kts 198°
2026-04-21 23:35 43.46988 -64.01401 35619 ft 439 kts 198°
2026-04-21 23:35 43.44067 -64.02646 35810 ft 439 kts 198°
2026-04-21 23:36 43.41154 -64.03887 36009 ft 439 kts 198°
2026-04-21 23:36 43.38239 -64.05128 36182 ft 438 kts 198°
2026-04-21 23:36 43.35323 -64.06367 36362 ft 438 kts 198°
2026-04-21 23:36 43.32414 -64.07603 36526 ft 438 kts 198°
2026-04-21 23:37 43.26556 -64.10086 36736 ft 441 kts 198°
2026-04-21 23:37 43.23624 -64.11327 36919 ft 441 kts 198°
2026-04-21 23:37 43.20696 -64.12566 37085 ft 440 kts 198°
2026-04-21 23:38 43.17762 -64.13805 37242 ft 440 kts 198°
2026-04-21 23:38 43.14837 -64.15040 37384 ft 440 kts 198°
2026-04-21 23:38 43.08999 -64.17499 37387 ft 441 kts 199°
2026-04-21 23:39 43.03110 -64.19977 37529 ft 443 kts 199°
2026-04-21 23:39 43.00161 -64.21215 37677 ft 443 kts 199°
2026-04-21 23:39 42.97217 -64.22450 37818 ft 443 kts 198°
2026-04-21 23:40 42.94278 -64.23683 37971 ft 442 kts 198°
2026-04-21 23:40 42.91353 -64.24908 38040 ft 442 kts 198°
2026-04-21 23:40 42.85483 -64.27361 38044 ft 441 kts 198°
2026-04-21 23:41 42.79611 -64.29811 38042 ft 441 kts 198°
2026-04-21 23:41 42.73719 -64.32263 38052 ft 445 kts 199°
2026-04-21 23:42 42.67808 -64.34720 38043 ft 443 kts 199°
2026-04-21 23:42 42.61904 -64.37170 38044 ft 444 kts 199°
2026-04-21 23:43 42.56127 -64.40093 38048 ft 444 kts 207°
2026-04-21 23:43 42.50709 -64.44087 38046 ft 442 kts 211°
2026-04-21 23:44 42.45346 -64.48171 38048 ft 442 kts 211°
2026-04-21 23:44 42.39987 -64.52221 38048 ft 445 kts 211°
2026-04-21 23:45 42.31891 -64.58317 38050 ft 444 kts 211°
2026-04-21 23:46 42.26492 -64.62371 38045 ft 445 kts 211°
2026-04-21 23:46 42.21064 -64.66440 38047 ft 446 kts 211°
2026-04-21 23:47 42.15646 -64.70494 38048 ft 445 kts 211°
2026-04-21 23:47 42.10226 -64.74541 38044 ft 446 kts 211°
2026-04-21 23:48 42.04788 -64.78594 38049 ft 446 kts 211°
2026-04-21 23:48 41.99361 -64.82630 38049 ft 446 kts 211°
2026-04-21 23:49 41.93928 -64.86663 38046 ft 446 kts 211°
2026-04-21 23:49 41.88296 -64.90198 38045 ft 448 kts 205°
2026-04-21 23:50 41.82559 -64.93456 38044 ft 448 kts 205°
2026-04-21 23:50 41.76821 -64.96730 38044 ft 448 kts 205°
2026-04-21 23:51 41.71072 -65.00009 38045 ft 451 kts 206°
2026-04-21 23:51 41.65299 -65.03294 38045 ft 450 kts 206°
2026-04-21 23:52 41.59540 -65.06562 38046 ft 450 kts 206°
2026-04-21 23:52 41.53779 -65.09826 38043 ft 450 kts 206°
2026-04-21 23:53 41.48016 -65.13084 38046 ft 450 kts 206°
2026-04-21 23:53 41.42247 -65.16340 38046 ft 450 kts 206°
2026-04-21 23:54 41.36477 -65.19590 38043 ft 450 kts 206°
2026-04-21 23:54 41.30748 -65.22810 38038 ft 450 kts 206°
2026-04-21 23:55 41.24980 -65.26046 38043 ft 449 kts 206°
2026-04-21 23:55 41.19220 -65.29272 38043 ft 450 kts 206°
2026-04-21 23:56 41.13445 -65.32499 38035 ft 451 kts 206°
2026-04-21 23:56 41.07664 -65.35724 38035 ft 451 kts 206°
2026-04-21 23:57 41.01880 -65.38944 38038 ft 451 kts 206°
2026-04-21 23:57 40.96096 -65.42159 38037 ft 451 kts 206°
2026-04-21 23:58 40.90312 -65.45366 38038 ft 451 kts 206°
2026-04-21 23:58 40.84533 -65.48566 38035 ft 451 kts 206°
2026-04-21 23:59 40.78750 -65.51762 38038 ft 451 kts 206°
2026-04-21 23:59 40.72966 -65.54951 38034 ft 450 kts 206°
2026-04-22 00:00 40.67185 -65.58132 38027 ft 450 kts 206°
2026-04-22 00:00 40.61398 -65.61312 38039 ft 451 kts 206°
2026-04-22 00:01 40.55603 -65.64489 38029 ft 452 kts 206°
2026-04-22 00:01 40.49798 -65.67667 38032 ft 451 kts 206°
2026-04-22 00:02 40.43997 -65.70837 38025 ft 452 kts 206°
2026-04-22 00:02 40.38184 -65.74007 38010 ft 451 kts 206°
2026-04-22 00:03 40.32394 -65.77158 38027 ft 451 kts 206°
2026-04-22 00:03 40.26639 -65.80285 38026 ft 451 kts 206°
2026-04-22 00:04 40.20843 -65.83428 38027 ft 451 kts 206°
2026-04-22 00:04 40.15049 -65.86564 38028 ft 451 kts 206°
2026-04-22 00:05 40.10188 -65.89191 38019 ft 451 kts 206°
2026-04-22 00:05 40.04390 -65.92318 38027 ft 451 kts 206°
2026-04-22 00:06 39.98588 -65.95440 38022 ft 454 kts 206°
2026-04-22 00:06 39.92753 -65.98577 38021 ft 453 kts 206°
2026-04-22 00:07 39.86926 -66.01703 38024 ft 453 kts 206°
2026-04-22 00:07 39.81131 -66.04806 38020 ft 452 kts 206°
2026-04-22 00:08 39.75312 -66.07916 38019 ft 452 kts 206°
2026-04-22 00:08 39.69495 -66.11020 38017 ft 452 kts 206°
2026-04-22 00:09 39.63673 -66.14120 38021 ft 452 kts 206°
2026-04-22 00:09 39.57858 -66.17211 38015 ft 452 kts 206°
2026-04-22 00:10 39.52039 -66.20299 38013 ft 452 kts 206°
2026-04-22 00:10 39.46220 -66.23380 38006 ft 451 kts 207°
2026-04-22 00:11 39.40403 -66.26456 38019 ft 453 kts 207°
2026-04-22 00:11 39.34556 -66.29542 38013 ft 454 kts 207°
2026-04-22 00:12 39.28755 -66.32597 37991 ft 453 kts 207°
2026-04-22 00:12 39.22918 -66.35666 38009 ft 453 kts 207°
2026-04-22 00:13 39.17081 -66.38730 38009 ft 453 kts 207°
2026-04-22 00:13 39.11245 -66.41788 38008 ft 453 kts 207°
2026-04-22 00:14 39.05414 -66.44837 38009 ft 452 kts 207°
2026-04-22 00:14 38.99580 -66.47883 38008 ft 452 kts 207°
2026-04-22 00:15 38.93745 -66.50924 38009 ft 452 kts 207°
2026-04-22 00:15 38.87910 -66.53959 38010 ft 452 kts 207°
2026-04-22 00:16 38.82077 -66.56988 38008 ft 452 kts 207°
2026-04-22 00:16 38.76222 -66.60025 38005 ft 455 kts 207°
2026-04-22 00:17 38.70352 -66.63063 37993 ft 454 kts 207°
2026-04-22 00:17 38.64402 -66.65814 38006 ft 458 kts 200°
2026-04-22 00:18 38.58122 -66.67407 38003 ft 464 kts 191°
2026-04-22 00:18 38.51671 -66.68167 38006 ft 465 kts 190°
2026-04-22 00:19 38.45242 -66.68941 38005 ft 464 kts 190°
2026-04-22 00:19 38.38859 -66.69720 38003 ft 464 kts 190°
2026-04-22 00:20 38.32437 -66.70502 37998 ft 464 kts 190°
2026-04-22 00:20 38.26011 -66.71283 38000 ft 464 kts 190°
2026-04-22 00:21 38.19583 -66.72062 38002 ft 464 kts 190°
2026-04-22 00:21 38.13185 -66.72826 38000 ft 463 kts 189°
2026-04-22 00:22 38.06783 -66.73576 37996 ft 463 kts 190°
2026-04-22 00:22 38.00367 -66.74377 37997 ft 463 kts 190°
2026-04-22 00:23 37.93943 -66.75161 37996 ft 463 kts 190°
2026-04-22 00:23 37.87531 -66.75933 37995 ft 463 kts 190°
2026-04-22 00:23 37.84324 -66.76317 38119 ft 461 kts 190°
2026-04-22 00:24 37.81131 -66.76699 38261 ft 461 kts 190°
2026-04-22 00:24 37.77941 -66.77082 38395 ft 460 kts 190°
2026-04-22 00:24 37.74751 -66.77464 38390 ft 459 kts 190°
2026-04-22 00:24 37.71579 -66.77842 38122 ft 456 kts 190°
2026-04-22 00:25 37.68415 -66.78220 38130 ft 457 kts 190°
2026-04-22 00:25 37.62057 -66.78981 38129 ft 461 kts 191°
2026-04-22 00:26 37.55706 -66.79737 38132 ft 461 kts 190°
2026-04-22 00:26 37.49262 -66.80330 38128 ft 465 kts 184°
2026-04-22 00:27 37.42837 -66.79263 38122 ft 474 kts 169°
2026-04-22 00:27 37.36607 -66.76338 38123 ft 480 kts 161°
2026-04-22 00:28 37.30443 -66.73085 38129 ft 481 kts 161°
2026-04-22 00:28 37.24267 -66.69855 38121 ft 481 kts 161°
2026-04-22 00:29 37.18104 -66.66640 38119 ft 479 kts 161°
2026-04-22 00:29 37.11938 -66.63430 38117 ft 480 kts 161°
2026-04-22 00:30 37.05778 -66.60228 38118 ft 480 kts 161°
2026-04-22 00:30 36.99597 -66.57022 38123 ft 480 kts 162°
2026-04-22 00:31 36.93420 -66.53819 38111 ft 480 kts 162°
2026-04-22 00:31 36.87236 -66.50622 38113 ft 481 kts 162°
2026-04-22 00:32 36.81054 -66.47432 38114 ft 481 kts 162°
2026-04-22 00:32 36.74859 -66.44241 38118 ft 482 kts 162°
2026-04-22 00:33 36.68692 -66.41069 38111 ft 482 kts 162°
2026-04-22 00:33 36.62489 -66.37884 38122 ft 482 kts 162°
2026-04-22 00:34 36.56279 -66.34701 38117 ft 483 kts 162°
2026-04-22 00:34 36.50069 -66.31524 38118 ft 483 kts 162°
2026-04-22 00:35 36.43853 -66.28349 38095 ft 483 kts 162°
2026-04-22 00:35 36.37635 -66.25179 38115 ft 482 kts 162°
2026-04-22 00:36 36.31454 -66.22030 38105 ft 479 kts 162°
2026-04-22 00:36 36.25278 -66.18894 38105 ft 480 kts 162°
2026-04-22 00:37 36.19095 -66.15758 38096 ft 480 kts 162°
2026-04-22 00:37 36.12968 -66.12656 38105 ft 479 kts 162°
2026-04-22 00:38 36.06757 -66.09516 38102 ft 479 kts 162°
2026-04-22 00:38 36.00625 -66.06422 38104 ft 479 kts 162°
2026-04-22 00:39 35.94450 -66.03311 38106 ft 480 kts 162°
2026-04-22 00:39 35.88267 -66.00202 38105 ft 480 kts 162°
2026-04-22 00:40 35.82083 -65.97097 38104 ft 480 kts 162°
2026-04-22 00:40 35.75901 -65.93998 38105 ft 480 kts 162°
2026-04-22 00:41 35.69727 -65.90907 38095 ft 475 kts 162°
2026-04-22 00:41 35.63615 -65.87854 38093 ft 474 kts 162°
2026-04-22 00:42 35.57504 -65.84808 38089 ft 474 kts 162°
2026-04-22 00:42 35.51381 -65.81760 38090 ft 474 kts 162°
2026-04-22 00:43 35.45268 -65.78721 38088 ft 474 kts 162°
2026-04-22 00:43 35.39150 -65.75685 38091 ft 474 kts 162°
2026-04-22 00:44 35.33044 -65.72659 38094 ft 474 kts 162°
2026-04-22 00:44 35.26918 -65.69709 38082 ft 471 kts 166°
2026-04-22 00:45 35.20611 -65.67785 38081 ft 464 kts 176°
2026-04-22 00:45 35.14241 -65.66498 38081 ft 463 kts 176°
2026-04-22 00:46 35.07888 -65.65187 38083 ft 463 kts 175°
2026-04-22 00:46 35.01564 -65.63878 38080 ft 463 kts 175°
2026-04-22 00:47 34.95203 -65.62562 38077 ft 464 kts 175°
2026-04-22 00:47 34.88844 -65.61249 38071 ft 463 kts 176°
2026-04-22 00:48 34.82509 -65.59943 38077 ft 461 kts 176°
2026-04-22 00:48 34.76181 -65.58643 38075 ft 461 kts 176°
2026-04-22 00:49 34.69847 -65.57342 38075 ft 461 kts 176°
2026-04-22 00:49 34.63512 -65.56043 38074 ft 462 kts 176°
2026-04-22 00:50 34.57179 -65.54746 38072 ft 462 kts 176°
2026-04-22 00:50 34.50840 -65.53450 38069 ft 462 kts 176°
2026-04-22 00:51 34.45569 -65.52374 38060 ft 462 kts 176°
2026-04-22 00:51 34.38201 -65.50871 38072 ft 462 kts 176°
2026-04-22 00:52 34.31871 -65.49583 38072 ft 461 kts 176°
2026-04-22 00:52 34.26564 -65.48505 38069 ft 461 kts 176°
2026-04-22 00:53 34.20229 -65.47219 38068 ft 461 kts 176°
2026-04-22 00:53 34.13901 -65.45936 38069 ft 460 kts 176°
2026-04-22 00:54 34.07623 -65.44666 38067 ft 460 kts 176°
2026-04-22 00:54 34.01310 -65.43391 38066 ft 460 kts 176°
2026-04-22 00:55 33.94998 -65.42117 37932 ft 458 kts 176°
2026-04-22 00:55 33.91852 -65.41482 37392 ft 458 kts 176°
2026-04-22 00:55 33.85519 -65.40211 35771 ft 466 kts 176°
2026-04-22 00:56 33.82308 -65.39568 34855 ft 471 kts 176°
2026-04-22 00:56 33.79059 -65.38916 33970 ft 475 kts 176°
2026-04-22 00:56 33.75796 -65.38260 33026 ft 477 kts 176°
2026-04-22 00:56 33.72514 -65.37601 32047 ft 479 kts 176°
2026-04-22 00:57 33.69213 -65.36942 31084 ft 482 kts 176°
2026-04-22 00:57 33.65903 -65.36289 30174 ft 483 kts 176°
2026-04-22 00:57 33.62576 -65.35635 29202 ft 483 kts 176°
2026-04-22 00:57 33.59244 -65.34976 28633 ft 475 kts 176°
2026-04-22 00:58 33.56015 -65.34336 28182 ft 466 kts 176°
2026-04-22 00:58 33.52881 -65.33717 27604 ft 460 kts 176°
2026-04-22 00:58 33.49736 -65.33099 27022 ft 455 kts 176°
2026-04-22 00:58 33.46625 -65.32489 26445 ft 451 kts 176°
2026-04-22 00:59 33.43550 -65.31886 25863 ft 447 kts 176°
2026-04-22 00:59 33.40495 -65.31288 25300 ft 443 kts 176°
2026-04-22 00:59 33.37457 -65.30694 24688 ft 441 kts 176°
2026-04-22 00:59 33.34445 -65.30104 24139 ft 438 kts 176°
2026-04-22 01:00 33.31447 -65.29518 23506 ft 436 kts 176°
2026-04-22 01:00 33.28469 -65.28938 22966 ft 431 kts 176°
2026-04-22 01:00 33.25529 -65.28362 22399 ft 426 kts 176°
2026-04-22 01:00 33.22614 -65.27791 21842 ft 421 kts 176°
2026-04-22 01:01 33.19742 -65.27230 21330 ft 416 kts 176°
2026-04-22 01:01 33.16919 -65.26678 21091 ft 406 kts 176°
2026-04-22 01:01 33.14133 -65.26137 20906 ft 405 kts 176°
2026-04-22 01:01 33.11345 -65.25597 20390 ft 407 kts 176°
2026-04-22 01:02 33.08544 -65.24981 19626 ft 415 kts 169°
2026-04-22 01:02 33.05847 -65.23624 18779 ft 428 kts 153°
2026-04-22 01:02 33.03494 -65.21421 18034 ft 434 kts 137°
2026-04-22 01:02 33.01424 -65.18808 17406 ft 431 kts 135°
2026-04-22 01:03 32.99422 -65.16175 16801 ft 426 kts 134°
2026-04-22 01:03 32.97446 -65.13580 16194 ft 422 kts 134°
2026-04-22 01:03 32.95468 -65.11015 15591 ft 418 kts 135°
2026-04-22 01:03 32.93497 -65.08485 14998 ft 414 kts 135°
2026-04-22 01:04 32.91542 -65.05993 14437 ft 410 kts 135°
2026-04-22 01:04 32.89599 -65.03525 13868 ft 407 kts 135°
2026-04-22 01:04 32.87676 -65.01085 13398 ft 400 kts 135°
2026-04-22 01:04 32.85832 -64.98746 13136 ft 387 kts 135°
2026-04-22 01:05 32.84006 -64.96432 12799 ft 377 kts 135°
2026-04-22 01:05 32.82244 -64.94199 12659 ft 364 kts 135°
2026-04-22 01:05 32.80540 -64.92042 12500 ft 350 kts 135°
2026-04-22 01:05 32.78903 -64.89972 12370 ft 337 kts 135°
2026-04-22 01:06 32.77325 -64.87976 12246 ft 325 kts 135°
2026-04-22 01:06 32.75806 -64.86056 12125 ft 313 kts 135°
2026-04-22 01:06 32.74345 -64.84211 12017 ft 301 kts 135°
2026-04-22 01:06 32.72939 -64.82436 11887 ft 289 kts 135°
2026-04-22 01:07 32.71572 -64.80712 11593 ft 286 kts 135°
2026-04-22 01:07 32.70209 -64.78997 11238 ft 285 kts 135°
2026-04-22 01:07 32.68856 -64.77294 10881 ft 283 kts 135°
2026-04-22 01:07 32.67503 -64.75591 10532 ft 282 kts 134°
2026-04-22 01:08 32.66162 -64.73904 10195 ft 281 kts 134°
2026-04-22 01:08 32.64822 -64.72219 9837 ft 279 kts 134°
2026-04-22 01:08 32.63496 -64.70551 9515 ft 276 kts 134°
2026-04-22 01:08 32.62183 -64.68900 9182 ft 274 kts 133°
2026-04-22 01:09 32.60878 -64.67260 8852 ft 273 kts 133°
2026-04-22 01:09 32.59582 -64.65631 8529 ft 270 kts 133°
2026-04-22 01:09 32.58302 -64.64024 8263 ft 266 kts 133°
2026-04-22 01:09 32.57030 -64.62428 7900 ft 267 kts 133°
2026-04-22 01:10 32.55758 -64.60832 7560 ft 267 kts 133°
2026-04-22 01:10 32.54498 -64.59253 7364 ft 259 kts 133°
2026-04-22 01:10 32.53266 -64.57709 7095 ft 257 kts 132°
2026-04-22 01:10 32.52039 -64.56172 6778 ft 256 kts 132°
2026-04-22 01:11 32.50815 -64.54639 6419 ft 257 kts 131°
2026-04-22 01:11 32.49593 -64.53109 6109 ft 255 kts 131°
2026-04-22 01:11 32.48385 -64.51592 5872 ft 250 kts 131°
2026-04-22 01:11 32.47228 -64.50071 5613 ft 245 kts 129°
2026-04-22 01:12 32.46131 -64.48588 5458 ft 234 kts 128°
2026-04-22 01:12 32.45082 -64.47165 5279 ft 227 kts 128°
2026-04-22 01:12 32.44046 -64.45765 4993 ft 225 kts 128°
2026-04-22 01:12 32.42965 -64.44429 4674 ft 226 kts 144°
2026-04-22 01:13 32.41505 -64.43781 4301 ft 227 kts 180°
2026-04-22 01:13 32.39972 -64.43976 4048 ft 222 kts 195°
2026-04-22 01:13 32.38483 -64.44429 3766 ft 220 kts 199°
2026-04-22 01:13 32.37008 -64.44919 3484 ft 221 kts 198°
2026-04-22 01:14 32.35521 -64.45398 3196 ft 219 kts 203°
2026-04-22 01:14 32.34285 -64.46335 3082 ft 212 kts 236°
2026-04-22 01:14 32.33639 -64.47843 2989 ft 202 kts 263°
2026-04-22 01:14 32.33503 -64.49470 2788 ft 197 kts 278°
2026-04-22 01:15 32.33625 -64.51053 2542 ft 191 kts 284°
2026-04-22 01:15 32.33842 -64.52585 2348 ft 182 kts 286°
2026-04-22 01:15 32.34059 -64.53998 2227 ft 167 kts 287°
2026-04-22 01:15 32.34273 -64.55291 2122 ft 154 kts 289°
2026-04-22 01:16 32.34472 -64.56479 2063 ft 140 kts 289°
2026-04-22 01:16 32.34653 -64.57548 1898 ft 128 kts 289°
2026-04-22 01:16 32.34831 -64.58581 1576 ft 128 kts 288°
2026-04-22 01:16 32.35005 -64.59616 1521 ft 129 kts 289°
2026-04-22 01:17 32.35190 -64.60716 1172 ft 136 kts 288°
2026-04-22 01:17 32.35399 -64.61789 874 ft 132 kts 289°
2026-04-22 01:17 32.35600 -64.62824 585 ft 128 kts 288°
2026-04-22 01:17 32.35743 -64.63859 414 ft 129 kts 289°
2026-04-22 01:18 32.35900 -64.64896 329 ft 128 kts 289°
2026-04-22 01:18 32.36064 -64.65906 127 ft 122 kts 290°
2026-04-22 01:18 32.36230 -64.66863 14 ft 111 kts 289°
2026-04-22 01:18 32.36330 -64.67415 3 ft 25 kts 276°
2026-04-22 01:19 32.36333 -64.67444 3 ft 0 kts 278°
2026-04-22 01:19 32.36347 -64.67540 3 ft 39 kts 281°
2026-04-22 01:19 32.36447 -64.68017 7 ft 78 kts 279°
2026-04-22 01:19 32.36543 -64.68623 5 ft 51 kts 280°
2026-04-22 01:20 32.36609 -64.69017 3 ft 47 kts 279°
2026-04-22 01:20 32.36546 -64.69362 4 ft 43 kts 246°
2026-04-22 01:20 32.36438 -64.69676 4 ft 40 kts 248°
2026-04-22 01:20 32.36333 -64.69979 4 ft 39 kts 247°
2026-04-22 01:21 32.36267 -64.70193 4 ft 10 kts 258°
2026-04-22 01:21 32.36240 -64.70278 4 ft 12 kts 248°
2026-04-22 01:21 32.36234 -64.70299 4 ft 0 kts 250°